Tracking 32941 objects as of 15-Jan-2026
HD Live streaming from Space Station
objects crossing your sky now

DELTA 1 DEB

Track DELTA 1 DEB now!
10-day predictions


NORAD ID: 9681
Int'l Code: 1975-004GC
Perigee: 715.7 km
Apogee: 794.9 km
Inclination: 98.0 °
Period: 99.8 minutes
Semi major axis: 7126 km
RCS: 0.0088 m2 (small)
Launch date: January 22, 1975
Source: United States (US)
Launch site: AIR FORCE WESTERN TEST RANGE (AFWTR)

Note: This is SATELLITE DEBRIS
Your satellite tracking list
Your tracking list is empty




NASA's NSSDC Master Catalog

Two Line Element Set (TLE):
1 09681U 75004GC  26014.16294574  .00000143  00000-0  53686-4 0  9991
2 09681  98.0105  84.2602 0055550  35.2722 325.2125 14.43130624621571
Source of the keplerian elements: AFSPC